Location: Santa Maria di Sala
(45.5070°N, 12.0300°E)
Time: 06:58:43
(UTC+02:00)

STRAND 1 - Pass Details

Date: 05 March 2024
Orbit: 764 x 779 km, 98.4° (Epoch: 16 April)

Event Time Altitude Azimuth Distance (km) Brightness Sun altitude
Rises 19:08:20 0° 10° (N) 3,261 ? -11.9°
Reaches altitude 10° 19:10:41 10° 8° (N) 2,327 ? -12.3°
Maximum altitude 19:15:44 64° 288° (WNW) 856 ? -13.2°
Drops below altitude 10° 19:20:45 10° 208° (SSW) 2,302 ? -14.1°
Sets 19:23:03 0° 205° (SSW) 3,222 ? -14.5°
